When you browse on this site, cookies collect data to enhance your experience and personalize the content and advertising you see.
Visit our Privacy Policy to learn more. By continuing to use the site, you agree to this use of cookies and data.
  • In Belgium
  • List of Countries
  • For 7 days
  • Water Temperature
  • Satellite Maps
  • Weather Map
  • Weather Widgets
  • user-avatar
    Login

    Hourly Weather Lahaur

    Today, 23 February, Saturday

    Time Temperature Precipitation Wind Pressure Humidity
    00:00 +13°C° 0 mm 2 mps 744 mmHg 61%
    01:00 +13°C° 0 mm 2 mps 743 mmHg 62%
    02:00 +12°C° 0 mm 2 mps 743 mmHg 63%
    03:00 +12°C° 0 mm 2 mps 743 mmHg 66%
    04:00 +12°C° 0 mm 2 mps 743 mmHg 69%
    05:00 +10°C° 0 mm 2 mps 742 mmHg 68%
    06:00 +12°C° 0 mm 2 mps 742 mmHg 68%
    07:00 +13°C° 0 mm 2 mps 743 mmHg 67%
    08:00 +13°C° 0 mm 2 mps 743 mmHg 67%
    09:00 +15°C° 0 mm 2 mps 743 mmHg 61%
    10:00 +18°C° 0 mm 2 mps 743 mmHg 56%
    11:00 +20°C° 0 mm 3 mps 743 mmHg 52%
    12:00 +21°C° 0 mm 3 mps 742 mmHg 48%
    13:00 +22°C° 0 mm 3 mps 742 mmHg 44%
    14:00 +24°C° 0 mm 2 mps 742 mmHg 41%
    15:00 +23°C° 0 mm 2 mps 741 mmHg 44%
    16:00 +21°C° 0 mm 2 mps 741 mmHg 47%
    17:00 +21°C° 0 mm 2 mps 741 mmHg 50%
    18:00 +20°C° 0 mm 1 mps 741 mmHg 51%
    19:00 +18°C° 0 mm 1 mps 741 mmHg 53%
    20:00 +16°C° 0 mm 1 mps 742 mmHg 55%
    21:00 +15°C° 0 mm 1 mps 742 mmHg 56%
    22:00 +15°C° 0 mm 1 mps 742 mmHg 56%
    23:00 +14°C° 0 mm 1 mps 742 mmHg 57%

    Tomorrow, 24 February, Sunday

    Time Temperature Precipitation Wind Pressure Humidity
    00:00 +14°C° 0 mm 1 mps 741 mmHg 57%
    01:00 +13°C° 0 mm 1 mps 741 mmHg 57%
    02:00 +13°C° 0 mm 1 mps 741 mmHg 57%
    03:00 +12°C° 0 mm 1 mps 741 mmHg 58%
    04:00 +12°C° 0 mm 1 mps 741 mmHg 59%
    05:00 +12°C° 0 mm 1 mps 740 mmHg 60%
    06:00 +12°C° 0 mm 1 mps 741 mmHg 60%
    07:00 +13°C° 0 mm 1 mps 741 mmHg 59%
    08:00 +14°C° 0 mm 1 mps 741 mmHg 59%
    09:00 +16°C° 0 mm 1 mps 741 mmHg 53%
    10:00 +19°C° 0 mm 1 mps 742 mmHg 47%
    11:00 +21°C° 0 mm 1 mps 742 mmHg 41%
    12:00 +22°C° 0 mm 1 mps 741 mmHg 38%
    13:00 +23°C° 0 mm 2 mps 741 mmHg 35%
    14:00 +24°C° 0 mm 2 mps 740 mmHg 32%
    15:00 +23°C° 0 mm 2 mps 740 mmHg 35%
    16:00 +21°C° 0 mm 2 mps 740 mmHg 39%
    17:00 +21°C° 0 mm 2 mps 739 mmHg 43%
    18:00 +20°C° 0 mm 1 mps 740 mmHg 45%
    19:00 +18°C° 0 mm 1 mps 740 mmHg 47%
    20:00 +15°C° 0 mm 0 mps 741 mmHg 50%
    21:00 +15°C° 0 mm 1 mps 741 mmHg 51%
    22:00 +15°C° 0 mm 1 mps 741 mmHg 52%
    23:00 +14°C° 0 mm 1 mps 741 mmHg 53%

    Day after tomorrow, 25 February, Monday

    Time Temperature Precipitation Wind Pressure Humidity
    00:00 +14°C° 0 mm 1 mps 741 mmHg 55%
    01:00 +13°C° 0 mm 1 mps 740 mmHg 57%
    02:00 +13°C° 0 mm 1 mps 740 mmHg 58%
    03:00 +12°C° 0 mm 1 mps 740 mmHg 61%
    04:00 +12°C° 0 mm 1 mps 740 mmHg 63%
    05:00 +11°C° 0 mm 1 mps 740 mmHg 66%
    06:00 +12°C° 0 mm 1 mps 740 mmHg 64%
    07:00 +13°C° 0 mm 1 mps 741 mmHg 62%
    08:00 +14°C° 0 mm 1 mps 741 mmHg 61%
    09:00 +16°C° 0 mm 1 mps 741 mmHg 54%
    10:00 +19°C° 0 mm 1 mps 741 mmHg 46%
    11:00 +21°C° 0 mm 1 mps 741 mmHg 39%
    12:00 +22°C° 0 mm 1 mps 741 mmHg 37%
    13:00 +21°C° 0 mm 0 mps 740 mmHg 35%
    14:00 +21°C° 0 mm 0 mps 740 mmHg 33%
    15:00 +21°C° 0 mm 0 mps 739 mmHg 36%
    16:00 +20°C° 0 mm 0 mps 739 mmHg 39%
    17:00 +21°C° 0 mm 1 mps 739 mmHg 43%
    18:00 +20°C° 0 mm 1 mps 739 mmHg 44%
    19:00 +18°C° 0 mm 1 mps 739 mmHg 46%
    20:00 +15°C° 0 mm 2 mps 740 mmHg 47%
    21:00 +15°C° 0 mm 2 mps 740 mmHg 48%
    22:00 +15°C° 0 mm 2 mps 740 mmHg 49%
    23:00 +14°C° 0 mm 2 mps 740 mmHg 50%

    26 February, Tuesday

    Time Temperature Precipitation Wind Pressure Humidity
    00:00 +14°C° 0 mm 2 mps 740 mmHg 49%
    01:00 +14°C° 0 mm 2 mps 740 mmHg 47%
    02:00 +13°C° 0 mm 2 mps 739 mmHg 45%
    03:00 +13°C° 0 mm 2 mps 739 mmHg 41%
    04:00 +12°C° 0 mm 3 mps 738 mmHg 37%
    05:00 +12°C° 0 mm 3 mps 738 mmHg 33%
    06:00 +13°C° 0 mm 2 mps 738 mmHg 37%
    07:00 +13°C° 0 mm 2 mps 739 mmHg 41%
    08:00 +13°C° 0 mm 1 mps 739 mmHg 44%
    09:00 +14°C° 0 mm 1 mps 739 mmHg 42%
    10:00 +16°C° 0 mm 1 mps 739 mmHg 41%
    11:00 +18°C° 0 mm 1 mps 739 mmHg 39%
    12:00 +18°C° 0 mm 2 mps 739 mmHg 39%
    13:00 +19°C° 0 mm 2 mps 739 mmHg 40%
    14:00 +19°C° 0 mm 3 mps 738 mmHg 40%
    15:00 +18°C° 0 mm 2 mps 738 mmHg 44%
    16:00 +18°C° 0 mm 2 mps 737 mmHg 49%
    17:00 +18°C° 0 mm 1 mps 737 mmHg 53%
    18:00 +16°C° 0.5 mm 1 mps 737 mmHg 61%
    19:00 +14°C° 0.5 mm 1 mps 737 mmHg 69%
    20:00 +13°C° 0.5 mm 1 mps 737 mmHg 78%
    21:00 +13°C° 0.3 mm 1 mps 737 mmHg 79%
    22:00 +13°C° 0.3 mm 1 mps 737 mmHg 80%
    23:00 +12°C° 0.3 mm 1 mps 737 mmHg 82%

    27 February, Wednesday

    Time Temperature Precipitation Wind Pressure Humidity
    00:00 +12°C° 0.3 mm 1 mps 737 mmHg 82%
    01:00 +12°C° 0.3 mm 1 mps 737 mmHg 83%
    02:00 +12°C° 0.3 mm 2 mps 737 mmHg 83%
    03:00 +11°C° 0.2 mm 1 mps 736 mmHg 84%
    04:00 +11°C° 0.2 mm 1 mps 736 mmHg 86%
    05:00 +11°C° 0.2 mm 1 mps 736 mmHg 87%
    06:00 +11°C° 0 mm 1 mps 737 mmHg 85%
    07:00 +12°C° 0 mm 1 mps 737 mmHg 83%
    08:00 +12°C° 0 mm 1 mps 738 mmHg 81%
    09:00 +14°C° 0 mm 1 mps 738 mmHg 72%
    10:00 +16°C° 0 mm 1 mps 739 mmHg 63%
    11:00 +18°C° 0 mm 1 mps 740 mmHg 55%
    12:00 +19°C° 0 mm 1 mps 739 mmHg 50%
    13:00 +20°C° 0 mm 1 mps 739 mmHg 45%
    14:00 +21°C° 0 mm 1 mps 739 mmHg 40%
    15:00 +20°C° 0 mm 1 mps 739 mmHg 44%
    16:00 +20°C° 0 mm 1 mps 739 mmHg 47%
    17:00 +18°C° 0 mm 2 mps 739 mmHg 51%
    18:00 +16°C° 0 mm 2 mps 739 mmHg 61%
    19:00 +15°C° 0 mm 2 mps 740 mmHg 71%
    20:00 +12°C° 0 mm 3 mps 740 mmHg 81%
    21:00 +12°C° 0 mm 2 mps 741 mmHg 83%
    22:00 +12°C° 0 mm 2 mps 741 mmHg 85%
    23:00 +11°C° 0 mm 1 mps 741 mmHg 86%

    28 February, Thursday

    Time Temperature Precipitation Wind Pressure Humidity
    00:00 +11°C° 0 mm 1 mps 741 mmHg 86%
    01:00 +11°C° 0 mm 1 mps 741 mmHg 86%
    02:00 +10°C° 0 mm 1 mps 740 mmHg 85%
    03:00 +10°C° 0 mm 1 mps 740 mmHg 84%
    04:00 +9°C° 0 mm 0 mps 740 mmHg 84%
    05:00 +9°C° 0 mm 0 mps 739 mmHg 83%
    06:00 +10°C° 0 mm 0 mps 740 mmHg 80%
    07:00 +11°C° 0 mm 0 mps 740 mmHg 76%
    08:00 +13°C° 0 mm 1 mps 741 mmHg 73%
    09:00 +14°C° 0 mm 1 mps 741 mmHg 67%
    10:00 +16°C° 0 mm 1 mps 741 mmHg 61%
    11:00 +18°C° 0 mm 1 mps 741 mmHg 55%
    12:00 +18°C° 0 mm 2 mps 741 mmHg 50%
    13:00 +19°C° 0 mm 2 mps 740 mmHg 45%
    14:00 +20°C° 0 mm 2 mps 740 mmHg 41%
    15:00 +20°C° 0 mm 2 mps 739 mmHg 44%
    16:00 +19°C° 0 mm 2 mps 739 mmHg 48%
    17:00 +19°C° 0 mm 1 mps 739 mmHg 52%
    18:00 +18°C° 0 mm 1 mps 740 mmHg 52%
    19:00 +18°C° 0 mm 1 mps 740 mmHg 52%
    20:00 +16°C° 0 mm 1 mps 740 mmHg 53%
    21:00 +16°C° 0 mm 1 mps 741 mmHg 53%
    22:00 +16°C° 0 mm 2 mps 741 mmHg 53%
    23:00 +15°C° 0 mm 2 mps 741 mmHg 53%
    Show more